Location: Esp�s Alto
(42.4476°N, 0.5876°E)
Time: 22:02:02
(UTC+00:00)

USA 32 - Pass Details

Date: 22 October 2019
Orbit: 778 x 782 km, 85.0° (Epoch: 28 October)

Event Time Altitude Azimuth Distance (km) Brightness Sun altitude
Exits shadow 03:57:48 73° 339° (NNW) 816 4.0 -26.5°
Drops below altitude 10° 04:02:36 10° 3° (N) 2,342 6.6 -25.7°
Sets 04:04:58 0° 4° (N) 3,275 7.4 -25.2°
